Погода в Черноземном

Россия / Воронежская область     50°16′09″N   41°05′43″E
темп.,
°C
ветер,
м/с
пор.,
м/с
влажн.,
%
обл.,
%
осадки,
мм/ч
давл.,
гПа
погр.,
м
23 апреля, пт
пт2300:00+9ю227642 0.1 102213
03:00+8юв1183100 0.7 102110
06:00+9ю2387100 0.4 102181
09:00+12ююз3572100 0.8 1021471
12:00+15ююв445760 0.8 10201361
15:00+16ююз345432 1.5 10191497
18:00+14зюз356215 1.3 1017192
21:00+11ююв227451 1.5 101722
24 апреля, сб
сб2400:00+11ююв3679100 0.0 1016172
03:00+9ююз4987100 0.3 1014252
06:00+9ююз4986100 0.3 1013383
09:00+10ююз6117699 0.8 10121309
12:00+5зсз71191100 1.1 1013617
15:00+10з695972 1.2 10131632
18:00+9з6116123 0.9 10141288
21:00+5з5117862 1.1 1016483
25 апреля, вс
вс2500:00+3зюз612710 0.0 1017508
03:00+2зюз613780 0.0 1019529
06:00+2зюз512795 0.0 1019533
09:00+6з685669 0.0 10201143
12:00+9з574174 0.0 10202194
15:00+11з4634100 0.0 10192410
18:00+10юз3444100 0.0 1019198
21:00+6ю3351100 0.0 101930
26 апреля, пн
пн2600:00+5ю3458100 0.0 101953
03:00+4ю3360100 0.0 101831
06:00+4ю3363100 0.0 101770
09:00+10ююз454880 0.0 1016757
12:00+12ююз3440100 0.0 10141832
15:00+14ююз3438100 0.0 10122181
18:00+10зсз556697 0.1 1011387
21:00+6сз569195 0.9 1013437
27 апреля, вт
вт2700:00+5зсз478750 2.3 1014709
03:00+3зюз37945 2.3 1014187
06:00+3зюз38880 0.0 1014267
09:00+8зюз465846 0.0 10141051
12:00+10зюз7846100 0.1 10142202
15:00+10з6841100 0.1 10142097
18:00+9з3549100 0.0 1014487
21:00+6з5666100 0.1 1015665